Regional Weather Roundup
Issued by NWS

Home | Current Version | Previous Version | Graphics & Text | Print | Product List | Glossary On
Versions: 1 2 3 4 5 6 7 8 9 10 11 12 13 14 15 16 17 18 19 20 21 22 23 24 25 26 27 28 29 30 31 32 33 34 35 36 37 38 39 40 41 42 43 44 45 46 47 48 49 50
000
ASUS43 KLMK 181502
RWRKY
KENTUCKY REGIONAL WEATHER ROUNDUP
NATIONAL WEATHER SERVICE LOUISVILLE KY
1000 AM EST WED JAN 18 2017

NOTE "FAIR" INDICATES FEW OR NO CLOUDS BELOW 12,000 FEET
WITH NO SIGNIFICANT WEATHER AND/OR OBSTRUCTIONS TO VISIBILITY.

KYZ001>023-026-027-061>063-070>075-181600-
WESTERN AND SOUTH CENTRAL KENTUCKY

CITY           SKY/WX    TMP DP  RH WIND       PRES   REMARKS
PADUCAH        CLOUDY    42  36  79 NE5       30.25R
HENDERSON      CLOUDY    39  34  81 NW6       30.26R WCI  35
OWENSBORO      CLOUDY    41  36  82 N5        30.26R
HOPKINSVILLE   CLOUDY    44  39  85 CALM      30.25R
BOWLING GREEN  CLOUDY    45  38  76 N7        30.25R
GLASGOW        NOT AVBL
$$

KYZ024-025-028>034-038-045-046-053-181600-
NORTH CENTRAL KENTUCKY

CITY           SKY/WX    TMP DP  RH WIND       PRES   REMARKS
LOUISVILLE/SDF CLOUDY    42  37  82 W7        30.24R
LOUISVILLE/LOU CLOUDY    43  36  76 W7        30.25R
FORT KNOX      CLOUDY    41  35  80 W7        30.22R
$$

KYZ035>037-039>044-047>052-055>060-089>105-181600-
NORTHEAST KENTUCKY

CITY           SKY/WX    TMP DP  RH WIND       PRES   REMARKS
LEXINGTON      CLOUDY    42  35  76 W10       30.22R
COVINGTON      CLOUDY    38  36  92 NW7       30.19R WCI  33
FRANKFORT      CLOUDY    42  34  73 W8        30.22R
$$

KYZ054-064>069-076>088-106>120-181600-
SOUTHEAST KENTUCKY

CITY           SKY/WX    TMP DP  RH WIND       PRES   REMARKS
JACKSON        CLOUDY    42  37  82 W6        30.20R
LONDON         CLOUDY    43  34  70 W6        30.22R
SOMERSET       NOT AVBL
MIDDLESBORO    CLOUDY    47  41  81 N6        30.22R
MONTICELLO     CLOUDY    43  38  82 N14       30.25R
$$




USA.gov is the U.S. government's official web portal to all federal, state and local government web resources and services.